TIME,DELAY(SENSOR),PRES,T(CTD),SAL,OXYGEN,RAWTEMP,T(OPTODE),TCPHASE,FLUOR,BETA(BETA700),BETA(BETA412),BETA(BETA440),CDOM,C(CSC),ED(ED412.40),ED(ED444.00),ED(ED489.70),ED(ED554.30),LU(LU411.80),LU(LU443.40),LU(LU489.60),LU(LU554.10),COMP,TILTX,TILTX(TILTY),CHECK
1345671123,5807,496.9200134277344000,6.3692998886108400,34.1794013977050800,63.4734115600585940,607.3151245117188000,6.3477058410644530,51.0527915954589840,52,105,85,81,80,15309,2147750866,2147421997,2148002002,2147871177,2147632164,2147078436,2148241636,2147196297,3545,4,13,21241
1345671233,5809,486.6600036621094000,6.4847998619079590,34.1650009155273440,68.9008331298828100,603.6453247070312000,6.4664478302001950,50.3086814880371100,52,104,90,79,81,15311,2147752054,2147418477,2148005046,2147870345,2147631076,2147080795,2148243949,2147199561,3318,4,13,14009
1345671356,5808,475.4899902343750000,6.6999001502990720,34.1519012451171900,76.5407333374023400,597.2932739257812000,6.6716690063476560,49.2817382812500000,52,107,91,80,79,15310,2147752365,2147420306,2148006098,2147872841,2147630802,2147078637,2148244388,2147198272,617,4,13,7960
1345671488,5809,464.1099853515625000,6.7396998405456540,34.1535987854003900,80.3645935058593800,595.7904052734375000,6.7201671600341800,48.8049812316894500,52,105,90,79,78,15307,2147749257,2147420672,2148003958,2147870427,2147627858,2147081718,2148242468,2147203236,262,4,13,64029
1345671611,5810,453.8800048828125000,6.8027000427246090,34.1414985656738300,83.2275772094726600,593.6397705078125000,6.7895340919494630,48.4403991699218750,51,109,90,80,79,15307,2147748864,2147418880,2148003355,2147871058,2147628909,2147077860,2148243629,2147199917,322,5,13,5938
1345671754,5805,442.8999938964844000,6.9453001022338870,34.1310005187988300,90.0989990234375000,590.3610229492188000,6.8952012062072750,47.6125297546386700,51,105,88,80,78,15309,2147748781,2147419894,2148001142,2147872054,2147627977,2147081563,2148243017,2147201280,1119,4,13,20687
1345671908,5808,432.2099914550781000,7.0002999305725100,34.1120986938476560,97.2409896850586000,588.6572875976562000,6.9500689506530760,46.8093109130859400,51,105,90,80,78,15310,2147749174,2147419273,2148003291,2147872685,2147627986,2147078272,2148242313,2147201865,1407,4,13,61984
1345672065,5811,420.0000000000000000,7.4759001731872560,34.1119003295898440,110.6417007446289000,572.7299804687500000,7.4617271423339840,45.1739311218261700,51,105,91,80,77,15306,2147751268,2147418916,2148002395,2147871442,2147630107,2147082861,2148238976,2147204955,951,4,13,14717
1345672186,5809,408.9400024414062500,7.5869002342224120,34.1153984069824200,114.8613967895507800,569.4172973632812000,7.5678620338439940,44.7019615173339840,50,105,92,80,77,15307,2147747620,2147422061,2148003986,2147868745,2147624795,2147088969,2148236251,2147207341,1888,4,13,42885
1345672309,5809,397.7600097656250000,7.8180999755859375,34.1136016845703100,121.1849975585937500,562.0029907226562000,7.8050589561462400,43.9707908630371100,50,106,86,80,77,15310,2147747008,2147422226,2148001462,2147871780,2147625197,2147087241,2148234642,2147204882,991,4,13,39854
1345672419,5808,387.5199890136719000,8.0768003463745120,34.1136016845703100,128.4575042724609400,553.9755859375000000,8.0613422393798830,43.1600990295410160,50,107,89,81,78,15287,2147745563,2147422144,2148000630,2147869440,2147624960,2147088859,2148235675,2147203876,1838,4,13,25431
1345672540,5808,376.2699890136719000,8.2905998229980470,34.1166000366210940,134.8639984130859400,547.4652099609375000,8.2687969207763670,42.4749183654785160,50,104,92,80,76,15292,2147747117,2147422573,2148005833,2147870939,2147622171,2147093677,2148236306,2147203638,3018,4,13,37104
1345672663,5808,365.1900024414062500,8.4523000717163090,34.1174011230468750,140.8544006347656200,541.5913696289062000,8.4556665420532230,41.8561286926269500,50,107,89,81,76,15283,2147742985,2147421869,2148002139,2147871890,2147620580,2147087177,2148230912,2147202706,2570,4,13,57091
1345672784,5809,354.7500000000000000,8.7550001144409180,34.1197013854980500,149.4183959960937500,532.7634277343750000,8.7360057830810550,40.9882888793945300,50,105,88,80,74,15286,2147741394,2147422080,2148004589,2147871213,2147618669,2147095936,2148228416,2147206006,1967,4,13,11051
1345672918,5808,343.9700012207031000,9.0219001770019530,34.1066017150878900,162.0178070068359400,523.8557739257812000,9.0182590484619140,39.8430900573730500,50,106,90,81,74,15286,2147739401,2147421293,2148004123,2147874432,2147618285,2147093558,2148229988,2147202752,1824,4,13,30564
1345673072,5807,332.7399902343750000,9.4117002487182620,34.1161994934082000,171.3341979980468800,511.3216857910156000,9.4144048690795900,38.9356613159179700,50,104,87,80,74,15288,2147740114,2147423323,2148009170,2147873508,2147615643,2147097508,2148225371,2147204854,365,4,14,14742
1345673248,5806,320.4400024414062500,9.9497003555297850,34.1235008239746100,186.2837066650390600,494.6850891113281000,9.9384632110595700,37.6136398315429700,50,104,91,80,72,15287,2147740306,2147423652,2148009499,2147872420,2147612324,2147102217,2148225673,2147205851,3518,4,13,12311
1345673372,5807,309.0199890136719000,10.1753997802734380,34.1367988586425800,192.7852020263672000,487.6853027343750000,10.1583900451660160,37.0698204040527340,49,104,90,79,72,15292,2147737718,2147424274,2148015552,2147870765,2147614921,2147103021,2148229979,2147206592,2992,4,13,13107
1345673482,5811,298.0700073242187500,10.4909000396728520,34.1423988342285160,204.1613006591797000,477.8499145507812500,10.4668598175048830,36.1977806091308600,49,107,89,81,72,15284,2147739428,2147423250,2148021787,2147872475,2147609545,2147108937,2148230528,2147205138,2845,3,13,7657
1345673594,5808,287.3299865722656000,10.7131004333496100,34.1397018432617200,197.1622924804687500,468.8486938476562500,10.7486200332641600,36.4783096313476560,49,105,89,80,72,15286,2147735716,2147427419,2148033590,2147872118,2147613595,2147109659,2148236324,2147209344,2177,3,13,29933
1345673715,5807,276.4599914550781000,11.1059999465942380,34.1633987426757800,197.5812988281250000,457.4831848144531000,11.1036796569824220,36.2646293640136700,49,109,93,80,72,15279,2147733110,2147427693,2148039917,2147871195,2147608932,2147116507,2148228425,2147210422,1454,4,13,12001
1345673849,5808,265.5000000000000000,11.5618000030517580,34.1920013427734400,199.4776000976562500,441.8284912109375000,11.5915098190307620,35.8923606872558600,50,109,90,80,72,15280,2147731940,2147423213,2148008566,2147871232,2147607021,2147110902,2148218221,2147210221,2157,4,13,24694
1345674003,5810,255.2899932861328000,12.1997995376586910,34.2281990051269500,200.6385955810547000,421.8977966308594000,12.2106599807739260,35.5009613037109400,49,105,89,81,70,15277,2147733302,2147423661,2148021531,2147870180,2147601782,2147122294,2148219657,2147211547,576,4,13,62288
1345674190,5807,243.9100036621093800,13.1232995986938480,34.2775001525878900,203.6819000244140600,392.2367858886719000,13.1284999847412110,34.8505287170410160,48,109,88,80,70,15278,2147729206,2147432841,2148036662,2147872740,2147600137,2147128219,2148224704,2147209636,548,4,14,6207
1345674323,5808,232.7100067138672000,13.8454999923706050,34.3376007080078100,205.1071014404297000,366.7066040039062500,13.9155397415161130,34.3732490539550800,48,106,88,80,68,15265,2147730340,2147474230,2148184813,2147872237,2147600201,2147158473,2148291209,2147215277,948,3,13,47751
1345674444,5808,221.4100036621093800,14.5651998519897460,34.4009017944335940,207.0426025390625000,344.9945068359375000,14.5830497741699220,33.9316596984863300,48,109,89,79,69,15265,2147732333,2147501878,2148260681,2147874221,2147593069,2147173878,2148327808,2147215753,2151,4,14,58359
1345674567,5810,210.5800018310547000,15.4135999679565430,34.4882011413574200,207.2931060791015600,315.7249145507812500,15.4807395935058600,33.4825210571289060,50,108,88,81,66,15261,2147733558,2147551908,2148370989,2147874130,2147592237,2147209654,2148374710,2147220928,19,3,14,2143
1345674710,5804,199.7500000000000000,16.6573009490966800,34.6209983825683600,207.6195068359375000,279.9899902343750000,16.5741996765136720,32.9444885253906250,51,109,90,82,66,15265,2147742729,2147617142,2148531465,2147874404,2147592018,2147249398,2148447140,2147225801,1429,3,14,3916
1345674765,5808,196.1199951171875000,16.7385997772216800,34.6287994384765600,209.9205932617187500,274.9321899414062500,16.7288093566894530,32.7417488098144500,51,108,88,81,67,15263,2147750418,2147649609,2148608109,2147873984,2147592219,2147271625,2148478674,2147234569,2099,3,15,6994
1345674839,5810,191.7599945068359400,17.0967998504638670,34.6598014831543000,214.2525939941406200,262.5180969238281000,17.1081504821777340,32.3257904052734400,50,105,89,80,66,15264,2147746953,2147641801,2148563648,2147873179,2147593993,2147274377,2148460059,2147232832,2309,2,14,59488
1345674916,5807,188.6399993896484400,17.4388999938964840,34.7072982788085940,217.4194946289062500,252.3336029052734400,17.4192695617675780,32.0117301940918000,51,107,87,81,64,15257,2147762422,2147713782,2148746944,2147875547,2147593965,2147316589,2148550107,2147237275,1264,3,15,56977
1345675015,5809,184.9700012207031200,17.6119003295898440,34.7341003417968750,216.5354003906250000,246.0171051025390600,17.6121902465820300,31.9704895019531250,53,109,90,81,66,15261,2147768338,2147755840,2148834395,2147874633,2147595392,2147350482,2148586166,2147242669,3062,3,15,44895
1345675114,5812,180.9199981689453000,17.9249992370605470,34.7728004455566400,215.3984069824218800,236.6587066650390600,17.8979892730712900,31.9011306762695300,53,110,88,82,65,15252,2147730953,2147530057,2148239250,2147872749,2147581065,2147225462,2148306843,2147222518,2688,3,15,817
1345675215,5810,176.7700042724609400,18.4094009399414060,34.8385009765625000,214.5809020996093800,219.9008026123047000,18.4097499847412100,31.7132301330566400,56,110,86,81,64,15248,2147798400,2147858349,2149049389,2147877641,2147608438,2147412781,2148692068,2147246619,1471,3,15,2046
1345675314,5810,173.0700073242187500,18.8274002075195300,34.9076004028320300,216.6517944335937500,206.9246063232422000,18.8060607910156250,31.4245204925537100,59,109,87,80,64,15264,2147813321,2147927442,2149203309,2147876608,2147612251,2147448649,2148761307,2147249974,992,3,15,18506
1345675424,5807,168.8399963378906200,18.9076004028320300,34.9259986877441400,219.4430999755859400,203.8502044677734400,18.8999691009521500,31.2357501983642580,58,110,87,81,65,15268,2147840612,2148014683,2149378349,2147875245,2147623350,2147509266,2148855606,2147256969,388,3,15,65475
1345675509,5809,164.4900054931640600,19.2082996368408200,34.9709014892578100,220.7901000976562500,193.0502014160156200,19.2299098968505860,31.0194892883300780,58,110,89,81,62,15264,2147875977,2148120713,2149593682,2147878098,2147637531,2147578313,2148959652,2147265417,3121,2,15,3416
1345675586,5807,160.2100067138672000,19.4808998107910160,35.0122985839843750,221.8040924072265600,184.7207946777343800,19.4844493865966800,30.8549098968505860,61,109,91,81,63,15264,2147914541,2148238866,2149828891,2147878930,2147655542,2147650770,2149077714,2147278573,1809,2,16,51551
1345675652,5811,156.5000000000000000,19.7479991912841800,35.0513992309570300,222.7210998535156200,176.7944030761718800,19.7267494201660160,30.7019004821777340,62,115,90,81,63,15260,2147961088,2148363218,2150084772,2147883803,2147675785,2147734244,2149201042,2147284653,1332,3,15,27330
1345675729,5810,152.3699951171875000,19.8652992248535160,35.0727996826171900,224.3343963623047000,172.6519012451172000,19.8534107208251950,30.5649604797363280,64,109,92,80,63,15259,2148020818,2148519478,2150390418,2147886454,2147701732,2147827081,2149355236,2147294893,482,3,15,58655
1345675808,5808,148.3699951171875000,19.9694004058837900,35.0797996520996100,224.5316009521484400,169.3822021484375000,19.9533996582031250,30.5116291046142580,67,114,90,81,63,15252,2148089133,2148688484,2150723282,2147891108,2147734756,2147939072,2149517257,2147306322,738,3,15,52299
1345675885,5803,145.0399932861328000,20.1921997070312500,35.1017990112304700,223.8365020751953000,162.1614990234375000,20.1742801666259770,30.4507293701171880,70,115,92,81,63,15251,2148157110,2148850331,2151026450,2147896850,2147764507,2148034285,2149664292,2147315757,576,2,15,35252
1345675973,5807,142.2500000000000000,20.2471008300781250,35.1087989807128900,223.8348999023437500,160.0122985839843800,20.2400493621826170,30.4223594665527340,75,116,89,83,63,15246,2148219035,2148987958,2151285888,2147899483,2147792950,2148113472,2149783972,2147325083,3084,2,15,63037
1345676118,5806,137.7899932861328000,20.5727996826171880,35.1458015441894500,224.6873016357422000,150.2046051025390600,20.5402507781982420,30.2499809265136720,82,123,90,82,62,15228,2148356160,2149278235,2151821933,2147906569,2147855533,2148259355,2150017956,2147343396,2462,3,15,59117
1345676217,5809,133.8500061035156200,20.6525993347167970,35.1562995910644500,226.6833038330078000,146.0493011474609400,20.6674995422363280,30.0959491729736330,84,122,91,84,62,15223,2148529097,2149616210,2152433472,2147919131,2147938944,2148451373,2150287954,2147363446,2463,2,15,58425
1345676316,5805,129.5800018310547000,20.9036006927490230,35.2092018127441400,230.0673980712890600,138.8630065917968800,20.8876495361328120,29.8364906311035160,94,121,92,84,62,15211,2148769609,2150069531,2153219501,2147935808,2148042176,2148680484,2150614454,2147389531,2966,2,15,1501
1345676406,5808,125.6299972534179700,20.9057006835937500,35.1790008544921900,229.2590942382812500,138.1334991455078000,20.9100093841552730,29.8662490844726560,97,126,91,82,61,15210,2149062336,2150619748,2154147364,2147958262,2148168402,2148951524,2150998957,2147422217,2379,2,15,47583
1345676494,5810,121.4800033569336000,20.9820003509521500,35.1847991943359400,230.1387939453125000,136.0373992919922000,20.9742507934570300,29.7961502075195300,105,128,91,83,63,15194,2149439533,2151314806,2155314258,2147984155,2148335689,2149279213,2151470354,2147463460,2276,3,15,58748
1345676571,5806,117.5999984741211000,20.9811000823974600,35.1642990112304700,228.7357025146484400,135.8482971191406200,20.9800395965576170,29.8618507385253900,116,128,91,83,62,15187,2149905289,2152143606,2156674706,2148019629,2148511917,2149612818,2151965586,2147506596,2976,3,15,30609
1345676648,5809,113.6399993896484400,21.0755996704101560,35.1720008850097660,228.7543945312500000,133.2749023437500000,21.0589294433593750,29.8274898529052730,122,132,92,85,62,15165,2150490020,2153158811,2158290806,2148071030,2148743936,2150047990,2152587282,2147565147,500,3,15,25273
1345676738,5807,109.3300018310546900,21.0884990692138670,35.1604003906250000,227.9253997802734400,132.3287963867187500,21.0879306793212900,29.8556995391845700,138,132,94,85,62,15160,2151297782,2154545380,2160453741,2148138825,2149055616,2150600530,2153378148,2147643337,1272,2,15,14707
1345676815,5810,105.7799987792968800,21.2292995452880860,35.1771011352539060,227.6313018798828000,127.5518035888671900,21.2344207763671880,29.8078193664550780,137,133,93,84,62,15159,2152086811,2155860196,2162450358,2148212498,2149354980,2151112082,2154103012,2147715739,1534,2,16,59804
1345676914,5808,101.9700012207031200,21.4085006713867200,35.1976013183593750,229.4913024902343800,123.0660018920898400,21.3720302581787100,29.6593799591064450,135,132,92,83,62,15155,2153088365,2157466944,2164774729,2148316809,2149716827,2151693147,2154851446,2147803739,1606,2,15,11449
1345677002,5804,99.0100021362304700,21.5207004547119140,35.2098999023437500,231.9687042236328000,118.5875015258789000,21.5094795227050780,29.4821796417236330,147,130,91,84,61,15141,2154304731,2159448566,2167597568,2148422381,2150191798,2152469979,2155909814,2147910528,2389,3,15,6933
1345677059,5811,97.1200027465820300,21.6040000915527340,35.2223014831543000,233.8701934814453000,116.0068969726562500,21.5886993408203120,29.3585395812988280,148,130,91,84,62,15128,2155194569,2160827666,2169391661,2148492388,2150519296,2152971894,2156525458,2147971977,2582,2,16,33866
1345677125,5815,95.0199966430664000,21.8465995788574220,35.2449989318847660,235.3724975585937500,108.1458969116211000,21.8301506042480470,29.1872501373291000,163,140,94,86,61,15103,2156419282,2162718582,2171854464,2148601746,2150995465,2153712137,2157443328,2148076516,2249,2,15,8603
1345677191,5811,93.3300018310546900,22.0200004577636720,35.2566986083984400,238.2221069335937500,104.5213012695312500,21.9415493011474600,29.0089206695556640,150,137,92,84,62,15111,2157653933,2164608804,2174217362,2148700333,2151456859,2154420077,2158283017,2148170825,96,3,15,7829
1345677301,5807,91.5299987792968800,22.0890007019042970,35.2601013183593750,239.6358947753906200,100.7113037109375000,22.0586891174316400,28.8954200744628900,156,136,93,84,61,15111,2159661211,2167779977,2178400045,2148868964,2152217536,2155639277,2159770276,2148330624,586,3,15,51678
1345677401,5809,88.9000015258789000,22.2609004974365230,35.2622985839843750,241.2624053955078000,94.6762466430664000,22.2443294525146500,28.7450599670410160,108,131,93,85,61,15136,2160120365,2167814436,2177133366,2148885869,2152509531,2155821632,2159610166,2148333046,1169,2,16,58749
1345677456,5807,86.7500000000000000,22.3222999572753900,35.2630004882812500,242.4528045654297000,92.5180969238281200,22.3107490539550780,28.6641197204589840,101,131,94,87,62,15136,2163950912,2173733833,2184995392,2149277613,2154124827,2158448438,2162811145,2148678418,1612,2,15,14982
1345677511,5810,84.7300033569336000,22.3290004730224600,35.2636985778808600,243.2917938232422000,92.0645065307617200,22.3247108459472660,28.6206493377685550,99,130,95,85,59,15136,2166212096,2176721600,2188232219,2149496521,2155181979,2160010340,2164482029,2148862144,1442,2,16,54876
1345677566,5806,82.8000030517578100,22.3325996398925780,35.2634010314941400,243.8540039062500000,91.8685226440429700,22.3307399749755860,28.5930099487304700,96,131,95,84,63,15138,2168586075,2179797339,2191524489,2149713069,2156263744,2161563483,2166081874,2149038738,1253,2,16,42949
1345677621,5809,81.0100021362304700,22.3598003387451170,35.2629013061523440,243.9678955078125000,90.8407669067382800,22.3623790740966800,28.5751209259033200,96,132,93,85,61,15137,2170932461,2182510006,2194021741,2149936018,2157389504,2163113042,2167574902,2149211739,802,2,15,52686
1345677699,5807,78.3199996948242200,22.4815998077392580,35.2608985900878900,244.5101013183593800,86.7790298461914000,22.4874496459960940,28.4999809265136720,87,132,95,85,61,15135,2175742080,2188291456,2199725860,2150418404,2159661001,2166172370,2170537664,2149554861,3522,2,15,25717
1345677754,5809,75.9499969482421900,22.5377006530761720,35.2579994201660160,245.3618011474609400,85.2939834594726600,22.5331897735595700,28.4434700012207030,85,130,96,86,60,15127,2180526829,2194109001,2205514395,2150926701,2162094738,2169412196,2173554523,2149906221,2749,2,16,8694
1345677809,5803,73.5400009155273400,22.5389995574951170,35.2566986083984400,245.6495056152343800,85.1271667480468800,22.5383300781250000,28.4286708831787100,87,131,91,87,58,15121,2186661888,2201464850,2212782226,2151631881,2165302454,2173640548,2177478153,2150394697,2204,2,16,4227
1345677864,5808,70.9400024414062500,22.5547008514404300,35.2391014099121100,245.7082061767578000,84.2568130493164000,22.5651493072509770,28.4151191711425780,84,146,94,86,61,15121,2192701412,2208422281,2219505801,2152323117,2168292955,2177395465,2180799762,2150823908,2023,2,16,17796
1345677919,5808,68.2799987792968800,22.7511005401611330,35.2285003662109400,245.6517944335937500,78.7671432495117200,22.7343292236328120,28.3487091064453120,82,130,95,86,58,15115,2198990043,2215215012,2225631122,2153173952,2171907812,2181798134,2184649197,2151361033,2157,3,16,17189
1345677974,5810,66.0599975585937500,23.1413002014160160,35.2458992004394500,246.4647979736328000,68.9481964111328100,23.0372390747070300,28.1905307769775400,76,133,95,86,58,15118,2203717814,2220365238,2230659748,2154031771,2174825380,2185318253,2187753654,2151798235,2336,3,15,2212
1345678042,5807,64.1200027465820300,23.2560005187988280,35.2407989501953100,247.4936065673828000,63.8139610290527340,23.1957893371582030,28.0816097259521500,73,129,93,87,58,15113,2208773613,2225683382,2235900534,2154815670,2177398802,2188337737,2190258084,2152107840,2890,3,16,18007
1345678119,5809,62.3100013732910160,23.3297004699707030,35.2400016784668000,248.0798950195312500,59.8915596008300800,23.3169803619384770,28.0074596405029300,71,129,94,85,56,15112,2214404288,2231697243,2241890980,2155713133,2180902793,2192572315,2193934016,2152628068,3318,2,16,28775
1345678207,5808,60.5200004577636700,23.3794002532959000,35.2350006103515600,248.3047027587890600,58.1731300354003900,23.3701000213623050,27.9764003753662100,71,128,95,87,58,15108,2220149321,2238024987,2248335122,2156808713,2184427803,2196822628,2197606692,2153153664,3350,2,16,37741
1345678317,5808,58.3600006103515600,23.4251995086669920,35.2323989868164060,248.2165985107422000,56.3433799743652340,23.4266796112060550,27.9574298858642580,70,127,96,86,60,15122,2228125110,2246549824,2256733046,2158439872,2188930834,2202016859,2202054619,2153862153,3264,2,16,16652
1345678406,5810,55.7400016784668000,23.5048999786376950,35.2277984619140600,247.5601959228515600,54.3010902404785160,23.4898395538330080,27.9607200622558600,68,132,96,85,57,15112,2237389193,2255421997,2264991396,2160356434,2195934080,2210049353,2208627931,2154970934,237,2,16,26275
1345678461,5806,53.4199981689453100,23.6210994720459000,35.2216987609863300,246.5791931152343800,49.4657287597656250,23.6394691467285160,27.9434700012207030,69,132,96,86,57,15098,2248185307,2266030235,2275015570,2162919542,2202852315,2217653997,2214533138,2156083300,971,2,16,50895
1345678516,5807,51.4599990844726560,23.8111991882324220,35.2193984985351560,246.2384033203125000,44.7258605957031250,23.7862396240234380,27.8997001647949220,66,134,95,88,55,15087,2256030381,2274103012,2283089069,2164984283,2207983122,2223146285,2218732416,2156807908,868,3,15,15133
1345678571,5806,50.1399993896484400,23.8349990844726560,35.2226982116699200,246.4313964843750000,43.1187591552734400,23.8360290527343750,27.8714294433593750,66,133,95,87,58,15105,2261762660,2279747739,2287674011,2165954486,2212835510,2228201984,2222481865,2157423131,1296,2,16,47371
1345678659,5806,48.3800010681152340,23.8696994781494140,35.2212982177734400,246.9149017333984400,41.7076683044433600,23.8797607421875000,27.8330898284912100,65,129,94,87,59,15102,2272966171,2291496329,2299198326,2169365138,2220880758,2236795382,2229081170,2158765220,1666,2,16,43345
1345678747,5806,45.8199996948242200,23.8960990905761720,35.2229995727539060,247.5162048339843800,40.9275817871093750,23.9039306640625000,27.7972297668457030,63,129,97,88,57,15103,2289899849,2307066404,2313259712,2174416128,2231744630,2247289152,2236692196,2160264109,1558,2,16,20473
1345678802,5816,43.2700004577636700,23.9221992492675780,35.2224006652832000,247.8825988769531200,40.1436500549316400,23.9282302856445300,27.7716999053955080,62,128,94,85,58,15110,2304019757,2319094546,2322819684,2177954368,2243834907,2258899190,2244901165,2162097334,1820,2,16,35054
1345678857,5809,40.5600013732910160,24.0133991241455080,35.2196998596191400,247.8742980957031200,37.0791282653808600,24.0232505798339840,27.7343502044677730,61,125,96,85,56,15118,2326314258,2341064740,2343949586,2185514614,2261720338,2276881709,2258400228,2164886098,2322,2,16,55573
1345678912,5808,38.3199996948242200,24.4792003631591800,35.2127990722656250,246.3453979492187500,23.4214000701904300,24.4472999572753900,27.6326293945312500,59,125,95,87,56,15132,2339707803,2353424265,2355450075,2190411181,2274617362,2288807460,2266248237,2166668004,1936,2,16,46921
1345678967,5809,36.9599990844726560,24.5580005645751950,35.2122993469238300,245.7422027587890600,21.0845603942871100,24.5199508666992200,27.6300106048584000,58,125,94,85,59,15138,2347836388,2361037732,2363620955,2195238253,2283565933,2297282084,2272380050,2167929362,1605,3,15,4191